AirNav   Bose ProFlight Aviation Headset
 
 875 users online  

5Y1 Albert J Lindberg Airport
Hessel, Michigan, USA

GOING TO HESSEL?


FAA INFORMATION EFFECTIVE 13 SEPTEMBER 2018

Location

FAA Identifier: 5Y1
Lat/Long: 46-02-07.5450N / 084-25-03.7300W
46-02.125750N / 084-25.062167W
46.0354292 / -84.4177028
(estimated)
Elevation: 760 ft. / 232 m (estimated)
Variation: 06W (1985)
From city: 2 miles N of HESSEL, MI
Time zone: UTC -4 (UTC -5 during Standard Time)
Zip code: 49719

Airport Operations

Airport use: Open to the public
Activation date: 04/1940
Control tower: no
ARTCC: TORONTO CENTER
FSS: GREEN BAY FLIGHT SERVICE STATION
NOTAMs facility: GRB (NOTAM-D service available)
Attendance: MON-FRI 0900-1700
AMGR AFTR HRS 1-906-298-0566
Wind indicator: yes
Segmented circle: yes
Lights: ACTVT MIRL RY 09/27 AND PAPI RYS 09 & 27 - CTAF.
Beacon: white-green (lighted land airport)
Operates sunset to sunrise.

Airport Communications

CTAF: 122.9
WX AWOS-3PT at CIU (13 nm N): 127.575 (906-495-7134)
WX AWOS-3 at MCD (14 nm SW): 118.275 (906-847-3778)

Nearby radio navigation aids

VOR radial/distance  VOR name  Freq  Var
SSMr195/23.0SAULT STE MARIE VOR/DME112.2004W
PLNr029/26.4PELLSTON VORTAC111.8006W

Airport Services

Parking: hangars and tiedowns

Runway Information

Runway 9/27

Dimensions: 3700 x 60 ft. / 1128 x 18 m
Surface: asphalt, in fair condition
Weight bearing capacity: 
Single wheel: 30.0
Double wheel: 60.0
Runway edge lights: medium intensity
Runway edge markings: MARKINGS ARE FADED.
RUNWAY 9  RUNWAY 27
Latitude: 46-02.132333N46-02.119167N
Longitude: 084-25.499333W084-24.624333W
Elevation: 760.0 ft.760.0 ft.
Traffic pattern: leftleft
Displaced threshold: 187 ft.no
Markings: basic, in fair conditionbasic, in fair condition
Visual slope indicator: 2-light PAPI on left (4.00 degrees glide path)2-light PAPI on left (3.50 degrees glide path)
Obstructions: 42 ft. trees, 900 ft. from runway, 16:1 slope to clear
APCH RATIO 20:1 AT DSPLCD THLD.
56 ft. trees, 1320 ft. from runway, 20:1 slope to clear

Airport Ownership and Management from official FAA records

Ownership: Publicly-owned
Owner: CLARK TOWNSHIP
PO BOX 367
CEDARVILLE, MI 49719
Phone 906-484-2672
ARPT PHYSICAL ADDRESS: 2106 THREE MILE RD, MAIL ADDRESS: PO BOX 207, HESSEL MI 49745.
Manager: ALLAN HUFF
P.O. BOX 367
CEDARVILLE, MI 49719
Phone 906-484-2672
AMGR AFTR HRS 906-298-0566

Airport Operational Statistics

Aircraft based on the field: 1
Single engine airplanes: 1
    
Aircraft operations: avg 21/month *
80% transient general aviation
20% local general aviation
* for 12-month period ending 31 December 2015

Additional Remarks

FBO 906-484-3623 OR 616-293-5849.
FOR FICONS CALL 906-484-2672.

Instrument Procedures

There are no published instrument procedures at 5Y1.

Some nearby airports with instrument procedures:

KCIU - Chippewa County International Airport (13 nm N)
KMCD - Mackinac Island Airport (14 nm SW)
83D - Mackinac County Airport (16 nm SW)
6Y1 - Bois Blanc Island Airport (17 nm S)
KSLH - Cheboygan County Airport (23 nm S)
 
Loc | Ops | Rwys | IFR | FBO | Links
Com | Nav | Svcs | Stats | Notes


 
Area around 5Y1 (Albert J Lindberg Airport)
 
Road maps at: MapQuest Bing Google
 
Aerial photo
WARNING: Photo may not be current or correct
Aerial photo of 5Y1 (Albert J Lindberg Airport)
Photo by Antonio Simao and Eric Wyn
Taken in June 2009

Do you have a better or more recent aerial photo of Albert J Lindberg Airport that you would like to share? If so, please send us your photo.

 
Sectional chart

 
Airport distance calculator
Flying to Albert J Lindberg Airport? Find the distance to fly.

From to 5Y1

Sunrise and sunset
Times for 22-Sep-2018
 Local
(UTC-4)
 Zulu
(UTC)
Morning civil twilight06:5610:56
Sunrise07:2611:26
Sunset19:3523:35
Evening civil twilight20:0500:05

Current date and time
Zulu (UTC)  22-Sep-2018 20:40:34
Local (UTC-4)  22-Sep-2018 16:40:34
 
METAR
KCIU 
13nm N 
222020Z AUTO 24010KT 10SM FEW002 SCT046 16/06 A3023 RMK AO2
KMCD 
14nm SW 
222015Z AUTO 25008G16KT 10SM SCT041 15/03 A3024 RMK AO2 T01450027
KSLH 
23nm S 
222015Z AUTO 21005KT 10SM SCT047 16/05 A3022 RMK AO2 T01630053
KANJ 
26nm N 
221955Z AUTO VRB03KT 10SM BKN050 16/06 A3021 RMK AO2 SLP231 T01610061
TAF
CYAM 
27nm N 
221938Z 2220/2308 29010G20KT P6SM BKN060 FM230000 25010KT P6SM SCT080 FM230200 26006KT P6SM BKN080 BECMG 2306/2308 28008KT RMK NXT FCST BY 230200Z
KPLN 
32nm SW 
221720Z 2218/2318 23008KT P6SM BKN040 FM230000 22004KT P6SM SCT100 FM230500 VRB03KT P6SM BKN080 FM231600 09004KT P6SM BKN035
NOTAMs
Click for the latest NOTAMs
NOTAMs are issued by the DoD/FAA and will open in a separate window not controlled by AirNav.

 

 
 

Would you like to see your business listed on this page?

 If your business provides an interesting product or service to pilots, flight crews, aircraft, or users of the Albert J Lindberg Airport, you should consider listing it here.  To start the listing process, click on the button below
 
Add a business
 

Other Pages about Albert J Lindberg Airport

Page from the Michigan Airport Directory (PDF)
 
Update a link
 
Copyright © AirNav, LLC. All rights reserved. Privacy Policy  Contact